Content
SEND FEEDBACK

Daily
Averages
Monthly
Summary
United States of America

ST. LOUIS, MISSOURI


Home > North America > United States > Missouri
Elevation: 535 feet     Latitude: 38 45N     Longitude: 090 22W

WEATHER
 
SELECT A DAY
Number of Records: 196,477;   Date Range: 1/1/95 - 8/28/14
 
SHARE

PRINT THIS DATA

[ ← Previous Day ]
WEATHER ALMANAC - JULY 24, 2013
[ Next Day → ]
[ °C ]   °F
Weather ElementAverageHighLow
Temperature72.7 °F80.1 °F (2:54 pm)63 °F (11:54 pm)
Dewpoint56.3 °F62.1 °F (1:54 am)52 °F (9:54 am)
Humidity58.6 %81 % (5:54 am)39 % (3:54 pm)
Barometer29.97 in30.02 in (10:54 pm)29.89 in (3:54 am)
Wind Speed6.3 mph11.5 mph (7:54 am)
Wind Gust17.3 mph (1:54 pm)
Weather ElementAverage
Visibility10 mi
Wind DirectionENE (64.8 °)

Weather ElementTotal
Precipitation---
Cooling Degree Days6.6 (Base 65)
Growing Degree Days21.6 (Base 50)
Averaged from 23 records on July 24, 2013
WEATHER CONDITIONS BREAKOUT
WIND DIRECTION BREAKOUT
WEATHER BY HOUR - JULY 24, 2013
[ °C ]   °F
Local TimeTemperatureDewpointHumidityBarometerVisibilityWind DirectionWind SpeedGust SpeedPrecipitationEventsConditions
1:54 AM72.0 °F62.1 °F71 %29.90 in10.0 miNE (40°)4.6 mphMostly Cloudy
2:54 AM71.1 °F62.1 °F73 %29.90 in10.0 miNNE (30°)5.8 mphClear
3:54 AM70.0 °F61.0 °F73 %29.89 in10.0 miNE (40°)4.6 mphPartly Cloudy
4:54 AM69.1 °F61.0 °F75 %29.91 in10.0 miNE (50°)6.9 mphClear
5:54 AM68.0 °F62.1 °F81 %29.93 in10.0 miENE (60°)9.2 mphPartly Cloudy
6:54 AM66.9 °F60.1 °F79 %29.94 in10.0 miNE (50°)9.2 mphScattered Clouds
7:54 AM68.0 °F57.0 °F68 %29.95 in10.0 miNE (50°)11.5 mphScattered Clouds
8:54 AM70.0 °F55.9 °F61 %29.96 in10.0 miENE (60°)9.2 mphScattered Clouds
9:54 AM71.1 °F52.0 °F51 %29.99 in10.0 miENE (70°)5.8 mphPartly Cloudy
10:54 AM73.9 °F54.0 °F50 %29.99 in10.0 miEast (100°)8.1 mphClear
11:54 AM75.9 °F53.1 °F45 %29.99 in10.0 miENE (60°)10.4 mphClear
12:54 PM79.0 °F54.0 °F42 %30.00 in10.0 miNNE (30°)10.4 mphClear
1:54 PM79.0 °F53.1 °F40 %29.99 in10.0 miNorth (360°)8.1 mph17.3 mphClear
2:54 PM80.1 °F54.0 °F40 %29.98 in10.0 miNNE (30°)8.1 mph17.3 mphPartly Cloudy
3:54 PM80.1 °F53.1 °F39 %29.98 in10.0 miCalmPartly Cloudy
4:54 PM80.1 °F53.1 °F39 %29.98 in10.0 miNorth (360°)4.6 mphClear
5:54 PM79.0 °F53.1 °F40 %29.98 in10.0 miNNE (20°)9.2 mphClear
6:54 PM78.1 °F54.0 °F43 %29.98 in10.0 miNNE (20°)8.1 mphClear
7:54 PM75.0 °F55.0 °F50 %29.99 in10.0 miNNE (30°)6.9 mphClear
8:54 PM72.0 °F55.0 °F55 %29.99 in10.0 miNNE (30°)4.6 mphClear
9:54 PM66.0 °F57.0 °F73 %30.01 in10.0 miCalmClear
10:54 PM64.0 °F57.0 °F78 %30.02 in10.0 miCalmClear
11:54 PM63.0 °F57.0 °F81 %30.02 in10.0 miCalmClear
Hourly data recorded from KSUS, located miles away from St. Louis, Missouri







STORIES FROM OUR PARTNERS